Lexington Weather

Lexington, Massachusetts, USA

44°F
5/12/2021 4:36am 
  • Lexington Conditions: Clear
  • Temperature: 44.4°F / 6.9°CColder 0.6°F than last hour.
  • Dew Point: 33.4°FIncreased 0.7°Fsince last hour.
  • Relative Humidity: 65%Increased 3.0% since last hour.
  • Wind: Wind from W W 1 mph, 10-min avg: 1 mph, gust: 7 mph
  • Barometer: 29.92 in Steady
  • Visibility: 10 miles
  • Rain Today: 0.00 in
  •   

Regional Weather Roundup
for Boston / Norton, MA

        
000
ASUS41 KBOX 100905
RWRBOX

REGIONAL WEATHER ROUNDUP
NATIONAL WEATHER SERVICE BOSTON/NORTON MA
500 AM EDT MON MAY 10 2021

NOTE:  "FAIR" INDICATES FEW OR NO CLOUDS BELOW 12,000 FEET WITH NO 
SIGNIFICANT WEATHER AND/OR OBSTRUCTIONS TO VISIBILITY.

MAZALL-101000-
EASTERN MASSACHUSETTS
  
CITY           SKY/WX    TMP DP  RH WIND       PRES   REMARKS
BOSTON         LGT RAIN  50  45  83 CALM      29.80F                  
BEVERLY        LGT RAIN  48  46  93 CALM      29.80S FOG              
LAWRENCE       RAIN      49  47  93 CALM      29.83R FOG              
BEDFORD        LGT RAIN  48  45  89 NW3       29.79R FOG              
BLUE HILL        N/A     45  45 100 N3        29.77F                  
NORWOOD        LGT RAIN  49  46  90 CALM      29.79S                  
MARSHFIELD     LGT RAIN  50  50 100 CALM      29.78F                  
PLYMOUTH       LGT RAIN  47  45  93 CALM      29.77F                  
TAUNTON        LGT RAIN  48  46  93 CALM      29.76F                  
NEW BEDFORD    LGT RAIN  47  46  97 NE3       29.75F                  
$$

MAZALL-101000-
CAPE COD AND THE ISLANDS
  
CITY           SKY/WX    TMP DP  RH WIND       PRES   REMARKS
FALMOUTH       LGT RAIN  46  46 100 E12       29.75F                  
HYANNIS        RAIN      47  45  93 E6        29.74F FOG              
CHATHAM        RAIN      45  42  89 E6        29.79F FOG              
PROVINCETOWN   LGT RAIN  47  46  97 SE3       29.79F FOG              
NANTUCKET      RAIN      45  44  97 NE10      29.75F FOG              
MARTHAS VNYRD  RAIN      47  45  93 E12       29.73F                  
$$
 
MAZALL-101000-
CENTRAL AND WESTERN MASSACHUSETTS
  
CITY           SKY/WX    TMP DP  RH WIND       PRES   REMARKS
WORCESTER      LGT RAIN  45  43  93 N5        29.78S                  
FITCHBURG      LGT RAIN  47  46  97 CALM      29.81R                  
ORANGE         LGT RAIN  47  46  97 NW3       29.81R FOG              
SPRINGFIELD    LGT RAIN  46  46 100 N5        29.78S                  
WESTFIELD      LGT RAIN  47  46  97 N3        29.78F                  
NORTH ADAMS    LGT RAIN  46  46 100 CALM      29.79F                  
PITTSFIELD     LGT RAIN  44  42  93 N6        29.76F                  
$$
 
RIZALL-101000-
RHODE ISLAND
  
CITY           SKY/WX    TMP DP  RH WIND       PRES   REMARKS
PROVIDENCE     RAIN      48  46  93 NE6       29.76F FOG              
NEWPORT        LGT RAIN  45  44  97 E7        29.74F                  
BLOCK ISLAND   LGT RAIN  45  43  93 NE12G21   29.74F                  
SMITHFIELD     FOG       46  46 100 NE5       29.77S VSB 1/4          
WESTERLY       LGT RAIN  44  43  96 N3        29.74F                  
$$
 
CTZALL-101000-
CONNECTICUT
  
CITY           SKY/WX    TMP DP  RH WIND       PRES   REMARKS
BRADLEY INTL   LGT RAIN  46  44  93 N5        29.78S                  
HARTFORD       LGT RAIN  48  44  86 N8        29.78S                  
BRIDGEPORT     LGT RAIN  47  44  90 N12       29.76R                  
DANBURY        LGT RAIN  47  44  90 NE6       29.77S FOG              
GROTON         LGT RAIN  46  44  93 N8        29.75R                  
NEW HAVEN      CLOUDY    48  46  93 N9        29.76R                  
CHESTER        CLOUDY    46  46 100 NE6       29.76R                  
MERIDEN        LGT RAIN  47  44  90 N6        29.78R                  
WILLIMANTIC    RAIN      46  44  93 N6        29.77S FOG              
OXFORD         LGT RAIN  44  44 100 N7        29.77R FOG              
$$

MEZ002-015-021-024-NHZ003-005-008-011-012-014-VTZ005-008-101000-
NORTHERN NEW ENGLAND
  
CITY           SKY/WX    TMP DP  RH WIND       PRES   REMARKS
PORTLAND ME    LGT RAIN  49  43  80 W5        29.79R                  
BANGOR ME      CLOUDY    45  37  73 CALM      29.77F                  
CONCORD NH     LGT RAIN  47  44  90 CALM      29.81R                  
MANCHESTER NH  LGT RAIN  49  45  86 SW5       29.80R                  
NASHUA NH      LGT RAIN  48  48 100 NW3       29.82R                  
PORTSMOUTH NH  LGT RAIN  49  46  89 SW5       29.82R                  
JAFFREY NH     LGT RAIN  46  44  93 CALM      29.81R                  
KEENE NH       LGT RAIN  46  45  96 N5        29.82R                  
BURLINGTON VT  LGT RAIN  49  43  80 SE3       29.82S                  
MT. WASHINGTON NOT AVBL                                               
$$

NYZ052-076-101000-
EASTERN NEW YORK
  
CITY           SKY/WX    TMP DP  RH WIND       PRES   REMARKS
ALBANY         DRIZZLE   43  43 100 NW5       29.81F                  
NEW YORK CITY  LGT RAIN  49  45  86 N12       29.75R                  
$$
 
ANZALL-101000-
MARINE OBSERVATIONS
  
STATION/POSITION TIME  TEMP    WIND        PRES    VSBY  WAVE
                       AIR SEA DIR/SP/G                  HT/PER
                 (UTC) (F)     (DEG/KT/KT) (MB)    (MI)  (FT/S)
BOSTON BUOY      0850   47 48   CALM  /  2 1009.2F         1/12
BUZZARDS BAY     0800           80/ 11/ 12 1009.1F
NANTUCKET SOUND  0850      52                N/A           1/ 3
MASS BAY-STELLWA 0804   48     200/  6/  8 1008.4F  1 7/8  2/11
ISLE OF SHOALS   0800   50     190/  9/ 10 1008.7F
S OF BLOCK IS    0826      49                N/A           3/ 4
$$

......................KEY.........................
  SKY/WX - SKY CONDITION/PRESENT WEATHER
  TMP    - TEMPERATURE IN FAHRENHEIT
  DWPT   - DEWPOINT IN FAHRENHEIT
  RH     - RELATIVE HUMIDITY IN PERCENT
  WIND   - DIRECTION AND SPEED IN MPH
  PRES   - MEAN SEA LEVEL PRESSURE IN INCHES OF HG
  WCI    - WIND CHILL INDEX
  VSB    - VISIBILITY IN MILES
  HX     - HEAT INDEX
  TC     - TEMPERATURE IN CELSIUS
  VRB    - VARIABLE WIND DIRECTION
  N/A    - NOT AVAILABLE
  
      

Other recent Regional Weather Roundups

Wed May 12, 4:04am

Wed May 12, 3:04am

Wed May 12, 2:04am

Wed May 12, 1:04am

Wed May 12, 12:05am

Tue May 11, 11:05pm

Tue May 11, 10:04pm

Tue May 11, 9:05pm

Tue May 11, 8:05pm

Tue May 11, 7:04pm

Tue May 11, 6:04pm

Tue May 11, 5:04pm

Tue May 11, 4:05pm

Tue May 11, 3:04pm

Tue May 11, 2:05pm

Tue May 11, 1:04pm

Tue May 11, 12:05pm

Tue May 11, 11:05am

Tue May 11, 10:04am

Tue May 11, 9:04am

Tue May 11, 8:04am

Tue May 11, 7:05am

Tue May 11, 6:04am

Tue May 11, 5:04am

Tue May 11, 4:04am

Tue May 11, 3:04am

Tue May 11, 2:04am

Tue May 11, 1:04am

Tue May 11, 12:04am

Mon May 10, 11:04pm

Mon May 10, 10:04pm

Mon May 10, 9:05pm

Mon May 10, 8:04pm

Mon May 10, 7:05pm

Mon May 10, 6:04pm

Mon May 10, 5:04pm

Mon May 10, 4:04pm

Mon May 10, 3:04pm

Mon May 10, 2:04pm

Mon May 10, 1:04pm

Mon May 10, 12:04pm

Mon May 10, 11:05am

Mon May 10, 10:04am

Mon May 10, 9:04am

Mon May 10, 8:04am

Mon May 10, 7:04am

Mon May 10, 6:04am

Mon May 10, 4:04am

Mon May 10, 3:04am

Mon May 10, 2:04am

Mon May 10, 1:04am

Mon May 10, 12:04am

Sun May 9, 11:04pm

Sun May 9, 10:04pm

Sun May 9, 9:04pm

Sun May 9, 8:04pm

Sun May 9, 7:05pm

Sun May 9, 6:04pm

Sun May 9, 5:04pm

Sun May 9, 4:04pm

Sun May 9, 3:04pm

Sun May 9, 2:04pm

Sun May 9, 1:05pm

Sun May 9, 12:04pm

Sun May 9, 11:05am

Sun May 9, 10:04am

Sun May 9, 9:04am

Sun May 9, 8:04am

Sun May 9, 7:04am

Sun May 9, 6:04am

Sun May 9, 5:04am

Sun May 9, 4:04am

Sun May 9, 3:04am

Sun May 9, 2:04am

Sun May 9, 1:05am

Sun May 9, 12:04am

Sat May 8, 11:05pm

Sat May 8, 10:04pm

Sat May 8, 9:05pm

Sat May 8, 8:04pm

Sat May 8, 7:04pm

Sat May 8, 6:04pm

Sat May 8, 5:05pm

Sat May 8, 4:04pm

Sat May 8, 3:05pm

Sat May 8, 2:05pm

Sat May 8, 1:05pm

Sat May 8, 12:04pm

Sat May 8, 11:05am

Sat May 8, 10:04am

Sat May 8, 9:04am

Sat May 8, 8:04am

Sat May 8, 7:04am

Sat May 8, 6:04am

Sat May 8, 5:04am

Sat May 8, 4:04am

Sat May 8, 3:04am

Sat May 8, 2:04am

Sat May 8, 1:05am

Sat May 8, 12:04am

Fri May 7, 11:04pm

Fri May 7, 10:05pm

Fri May 7, 9:04pm

Fri May 7, 8:04pm

Fri May 7, 7:05pm

Fri May 7, 6:04pm

Fri May 7, 5:05pm

Fri May 7, 4:04pm

Fri May 7, 3:04pm

Fri May 7, 2:05pm

Fri May 7, 1:04pm

Fri May 7, 12:04pm

Fri May 7, 11:05am

Fri May 7, 10:04am

Fri May 7, 9:04am

Fri May 7, 8:05am

Fri May 7, 7:04am

Fri May 7, 6:04am

Fri May 7, 5:04am

Fri May 7, 4:04am

Fri May 7, 3:04am

Fri May 7, 2:05am

Fri May 7, 1:04am

Fri May 7, 12:05am

Thu May 6, 11:04pm

Thu May 6, 10:04pm

Thu May 6, 9:05pm

Thu May 6, 8:04pm

Thu May 6, 7:04pm

Thu May 6, 6:04pm

Thu May 6, 5:05pm

Thu May 6, 4:04pm

Thu May 6, 3:04pm

Thu May 6, 2:05pm

Thu May 6, 1:04pm

Thu May 6, 12:04pm

Thu May 6, 11:04am

Thu May 6, 10:04am

Thu May 6, 9:04am

Thu May 6, 8:04am

Thu May 6, 7:04am

Thu May 6, 6:04am

Thu May 6, 5:04am

Thu May 6, 4:04am

Thu May 6, 3:04am

Thu May 6, 2:05am

Thu May 6, 1:04am

Thu May 6, 12:05am

Wed May 5, 11:04pm

Wed May 5, 10:04pm

Wed May 5, 9:05pm

Wed May 5, 8:04pm

Wed May 5, 7:05pm

Wed May 5, 6:04pm

Wed May 5, 5:04pm

Wed May 5, 4:04pm

Wed May 5, 3:04pm

Wed May 5, 2:05pm

Wed May 5, 1:05pm

Wed May 5, 12:04pm

Wed May 5, 11:05am

Wed May 5, 10:04am

Wed May 5, 9:04am

Wed May 5, 8:04am

Wed May 5, 7:04am

Wed May 5, 6:05am

Wed May 5, 5:04am

Meta data:

ID: e42ee5d7-8701-4aae-96bd-4a27e2d8a75d
Link: https://api.weather.gov/products/e42ee5d7-8701-4aae-96bd-4a27e2d8a75d